RADUGA 3 [-]

Last updated on July 6, 2021, 3:35 p.m. UTC

1 10159U 77071A   21186.91716170  .00000141  00000-0  00000-0 0  9994
2 10159   8.6533 297.6494 0008748 218.7763 143.8340  1.00327371158927
UTC
Height (km)
Latitude
Longitude
Inclination
Orbital Period
UTC large
Height (km)
Speed (km/s)
/
Latitude / Longitude
Inclination (degrees)
Orbital Period (minutes)
Azimuth
Elevation
Range (km)
Doppler Factor
iOS Compass Heading
iOS Angle